Location: Altmatt
(47.1333°N, 8.7000°E)
Time: 08:31:26
(UTC+00:00)

Cosmos 2237 Rocket - Pass Details

Date: 13 July 2020
Orbit: 834 x 850 km, 71.0° (Epoch: 05 August)

Event Time Altitude Azimuth Distance (km) Brightness Sun altitude
Rises 21:56:44 0° 242° (WSW) 3,407 5.3 -18.0°
Reaches altitude 10° 21:59:33 10° 254° (WSW) 2,476 4.7 -18.2°
Maximum altitude 22:04:21 27° 312° (NW) 1,569 4.3 -18.5°
Drops below altitude 10° 22:09:11 10° 10° (N) 2,487 5.5 -18.8°
Sets 22:12:02 0° 22° (NNE) 3,425 6.1 -18.9°
